Location: Banff
(51.1667°N, 115.5667°W)
Time: 12:44:05
(UTC+00:00)

N. Korean satellite - Visible Passes

Search period start: 28 October 2020 00:00
Search period end: 07 November 2020 00:00
Orbit: 452 x 505 km, 97.2° (Epoch: 27 October)

Date Brightness Start Highest point End Pass type
(mag) Time Alt. Az. Time Alt. Az. Time Alt. Az.
28 Oct 10.0 01:31:11 10° WSW 01:33:06 14° W 01:35:01 10° WNW visible
28 Oct 8.5 12:50:18 10° NNE 12:53:24 31° E 12:56:30 10° SSE visible
29 Oct 9.2 01:03:46 10° SSW 01:06:46 25° W 01:09:45 10° NW visible
29 Oct 9.6 12:24:47 10° NE 12:27:05 17° E 12:29:23 10° SE visible
30 Oct 6.3 13:31:07 10° NNE 13:34:33 82° WNW 13:37:58 10° SSW visible
31 Oct 7.5 13:05:03 10° NNE 13:08:23 47° E 13:11:41 10° S visible
01 Nov 9.8 01:19:20 10° SW 01:21:48 18° W 01:24:14 10° NW visible
01 Nov 9.0 12:39:15 10° NE 12:42:06 24° E 12:44:57 10° SSE visible
02 Nov 8.6 00:52:16 10° SSW 00:55:29 33° W 00:58:40 10° NNW visible
02 Nov 10.0 12:14:04 10° ENE 12:15:43 13° E 12:17:24 10° ESE visible
02 Nov 6.5 13:46:03 10° N 13:49:25 53° WNW 13:52:45 10° SSW visible
03 Nov 6.7 13:19:50 10° NNE 13:23:17 74° ESE 13:26:42 10° S visible
04 Nov 10.1 01:35:18 10° WSW 01:36:49 12° W 01:38:19 10° WNW visible
04 Nov 8.2 12:53:51 10° NNE 12:57:03 35° E 13:00:14 10° SSE visible
05 Nov 9.4 01:07:36 10° SSW 01:10:25 23° W 01:13:13 10° NW visible
05 Nov 9.4 12:28:13 10° NE 12:30:43 19° E 12:33:13 10° SE visible
05 Nov 7.0 14:01:02 10° N 14:04:13 36° WNW 14:07:23 10° SW visible
06 Nov 7.9 00:40:47 10° S 00:44:08 43° W 00:47:28 10° NNW visible
06 Nov 6.3 13:34:40 10° N 13:38:07 73° WNW 13:41:33 10° SSW visible
